Year,Month,Day,Hour,Minute,Value (Times are PST for temperature in C)
2014,07,27,00,00,15.70
2014,07,27,00,01,15.70
2014,07,27,00,02,15.70
2014,07,27,00,03,15.70
2014,07,27,00,04,15.70
2014,07,27,00,05,15.70
2014,07,27,00,06,15.70
2014,07,27,00,07,15.70
2014,07,27,00,08,15.70
2014,07,27,00,09,15.70
2014,07,27,00,10,15.70
2014,07,27,00,11,15.70
2014,07,27,00,12,15.70
2014,07,27,00,13,15.70
2014,07,27,00,14,15.70
2014,07,27,00,15,15.80
2014,07,27,00,16,15.80
2014,07,27,00,17,15.80
2014,07,27,00,18,15.90
2014,07,27,00,19,15.90
2014,07,27,00,20,16.00
2014,07,27,00,21,16.00
2014,07,27,00,22,16.10
2014,07,27,00,23,16.10
2014,07,27,00,24,16.10
2014,07,27,00,25,16.10
2014,07,27,00,26,16.20
2014,07,27,00,27,16.20
2014,07,27,00,28,16.20
2014,07,27,00,29,16.20
2014,07,27,00,30,16.20
2014,07,27,00,31,16.30
2014,07,27,00,32,16.30
2014,07,27,00,33,16.30
2014,07,27,00,34,16.50
2014,07,27,00,35,16.50
2014,07,27,00,36,16.60
2014,07,27,00,37,16.60
2014,07,27,00,38,16.60
2014,07,27,00,39,16.60
2014,07,27,00,40,16.60
2014,07,27,00,41,16.50
2014,07,27,00,42,16.50
2014,07,27,00,43,16.50
2014,07,27,00,44,16.40
2014,07,27,00,45,16.30
2014,07,27,00,46,16.30
2014,07,27,00,47,16.30
2014,07,27,00,48,16.30
2014,07,27,00,49,16.30
2014,07,27,00,50,16.30
2014,07,27,00,51,16.30
2014,07,27,00,52,16.30
2014,07,27,00,53,16.30
2014,07,27,00,54,16.30
2014,07,27,00,55,16.20
2014,07,27,00,56,16.20
2014,07,27,00,57,16.20
2014,07,27,00,58,16.20
2014,07,27,00,59,16.20
2014,07,27,01,00,16.20
2014,07,27,01,01,16.10
2014,07,27,01,02,16.10
2014,07,27,01,03,16.10
2014,07,27,01,04,16.10
2014,07,27,01,05,16.10
2014,07,27,01,06,16.10
2014,07,27,01,07,16.10
2014,07,27,01,08,16.10
2014,07,27,01,09,16.10
2014,07,27,01,10,16.10
2014,07,27,01,11,16.00
2014,07,27,01,12,16.00
2014,07,27,01,13,15.90
2014,07,27,01,14,15.90
2014,07,27,01,15,15.80
2014,07,27,01,16,15.80
2014,07,27,01,17,15.80
2014,07,27,01,18,15.70
2014,07,27,01,19,15.70
2014,07,27,01,20,15.60
2014,07,27,01,21,15.60
2014,07,27,01,22,15.50
2014,07,27,01,23,15.40
2014,07,27,01,24,15.40
2014,07,27,01,25,15.40
2014,07,27,01,26,15.30
2014,07,27,01,27,15.30
2014,07,27,01,28,15.20
2014,07,27,01,29,15.30
2014,07,27,01,30,15.30
2014,07,27,01,31,15.30
2014,07,27,01,32,15.20
2014,07,27,01,33,15.10
2014,07,27,01,34,15.10
2014,07,27,01,35,15.00
2014,07,27,01,36,14.90
2014,07,27,01,37,14.90
2014,07,27,01,38,14.80
2014,07,27,01,39,14.80
2014,07,27,01,40,14.80
2014,07,27,01,41,14.80
2014,07,27,01,42,14.80
2014,07,27,01,43,14.80
2014,07,27,01,44,14.80
2014,07,27,01,45,14.70
2014,07,27,01,46,14.70
2014,07,27,01,47,14.70
2014,07,27,01,48,14.70
2014,07,27,01,49,14.70
2014,07,27,01,50,14.60
2014,07,27,01,51,14.60
2014,07,27,01,52,14.60
2014,07,27,01,53,14.60
2014,07,27,01,54,14.60
2014,07,27,01,55,14.50
2014,07,27,01,56,14.50
2014,07,27,01,57,14.50
2014,07,27,01,58,14.40
2014,07,27,01,59,14.40
2014,07,27,02,00,14.40
2014,07,27,02,01,14.40
2014,07,27,02,02,14.40
2014,07,27,02,03,14.40
2014,07,27,02,04,14.40
2014,07,27,02,05,14.40
2014,07,27,02,06,14.40
2014,07,27,02,07,14.40
2014,07,27,02,08,14.40
2014,07,27,02,09,14.40
2014,07,27,02,10,14.40
2014,07,27,02,11,14.40
2014,07,27,02,12,14.40
2014,07,27,02,13,14.40
2014,07,27,02,14,14.40
2014,07,27,02,15,14.40
2014,07,27,02,16,14.40
2014,07,27,02,17,14.40
2014,07,27,02,18,14.40
2014,07,27,02,19,14.40
2014,07,27,02,20,14.40
2014,07,27,02,21,14.40
2014,07,27,02,22,14.30
2014,07,27,02,23,14.30
2014,07,27,02,24,14.30
2014,07,27,02,25,14.30
2014,07,27,02,26,14.20
2014,07,27,02,27,14.20
2014,07,27,02,28,14.20
2014,07,27,02,29,14.10
2014,07,27,02,30,14.10
2014,07,27,02,31,14.00
2014,07,27,02,32,14.00
2014,07,27,02,33,13.90
2014,07,27,02,34,13.80
2014,07,27,02,35,13.80
2014,07,27,02,36,13.70
2014,07,27,02,37,13.70
2014,07,27,02,38,13.60
2014,07,27,02,39,13.60
2014,07,27,02,40,13.60
2014,07,27,02,41,13.60
2014,07,27,02,42,13.50
2014,07,27,02,43,13.50
2014,07,27,02,44,13.50
2014,07,27,02,45,13.40
2014,07,27,02,46,13.40
2014,07,27,02,47,13.40
2014,07,27,02,48,13.40
2014,07,27,02,49,13.40
2014,07,27,02,50,13.40
2014,07,27,02,51,13.40
2014,07,27,02,52,13.40
2014,07,27,02,53,13.40
2014,07,27,02,54,13.40
2014,07,27,02,55,13.40
2014,07,27,02,56,13.40
2014,07,27,02,57,13.40
2014,07,27,02,58,13.40
2014,07,27,02,59,13.40
2014,07,27,03,00,13.40
2014,07,27,03,01,13.30
2014,07,27,03,02,13.30
2014,07,27,03,03,13.30
2014,07,27,03,04,13.30
2014,07,27,03,05,13.30
2014,07,27,03,06,13.30
2014,07,27,03,07,13.30
2014,07,27,03,08,13.40
2014,07,27,03,09,13.40
2014,07,27,03,10,13.40
2014,07,27,03,11,13.40
2014,07,27,03,12,13.40
2014,07,27,03,13,13.40
2014,07,27,03,14,13.40
2014,07,27,03,15,13.40
2014,07,27,03,16,13.40
2014,07,27,03,17,13.50
2014,07,27,03,18,13.50
2014,07,27,03,19,13.60
2014,07,27,03,20,13.60
2014,07,27,03,21,13.60
2014,07,27,03,22,13.60
2014,07,27,03,23,13.60
2014,07,27,03,24,13.60
2014,07,27,03,25,13.60
2014,07,27,03,26,13.60
2014,07,27,03,27,13.70
2014,07,27,03,28,13.70
2014,07,27,03,29,13.70
2014,07,27,03,30,13.70
2014,07,27,03,31,13.70
2014,07,27,03,32,13.70
2014,07,27,03,33,13.80
2014,07,27,03,34,13.80
2014,07,27,03,35,13.80
2014,07,27,03,36,13.80
2014,07,27,03,37,13.80
2014,07,27,03,38,13.80
2014,07,27,03,39,13.80
2014,07,27,03,40,13.80
2014,07,27,03,41,13.80
2014,07,27,03,42,13.80
2014,07,27,03,43,13.80
2014,07,27,03,44,13.80
2014,07,27,03,45,13.80
2014,07,27,03,46,13.70
2014,07,27,03,47,13.70
2014,07,27,03,48,13.70
2014,07,27,03,49,13.60
2014,07,27,03,50,13.60
2014,07,27,03,51,13.50
2014,07,27,03,52,13.40
2014,07,27,03,53,13.30
2014,07,27,03,54,13.30
2014,07,27,03,55,13.30
2014,07,27,03,56,13.20
2014,07,27,03,57,13.20
2014,07,27,03,58,13.20
2014,07,27,03,59,13.10
2014,07,27,04,00,13.10
2014,07,27,04,01,13.00
2014,07,27,04,02,13.00
2014,07,27,04,03,12.90
2014,07,27,04,04,12.90
2014,07,27,04,05,12.90
2014,07,27,04,06,12.80
2014,07,27,04,07,12.80
2014,07,27,04,08,12.80
2014,07,27,04,09,12.80
2014,07,27,04,10,12.90
2014,07,27,04,11,12.90
2014,07,27,04,12,12.90
2014,07,27,04,13,12.90
2014,07,27,04,14,12.90
2014,07,27,04,15,12.90
2014,07,27,04,16,13.00
2014,07,27,04,17,13.00
2014,07,27,04,18,13.00
2014,07,27,04,19,13.00
2014,07,27,04,20,13.00
2014,07,27,04,21,13.00
2014,07,27,04,22,13.00
2014,07,27,04,23,13.00
2014,07,27,04,24,13.00
2014,07,27,04,25,13.00
2014,07,27,04,26,13.00
2014,07,27,04,27,13.00
2014,07,27,04,28,13.00
2014,07,27,04,29,13.10
2014,07,27,04,30,13.10
2014,07,27,04,31,13.10
2014,07,27,04,32,13.10
2014,07,27,04,33,13.10
2014,07,27,04,34,13.20
2014,07,27,04,35,13.20
2014,07,27,04,36,13.20
2014,07,27,04,37,13.20
2014,07,27,04,38,13.20
2014,07,27,04,39,13.20
2014,07,27,04,40,13.30
2014,07,27,04,41,13.30
2014,07,27,04,42,13.30
2014,07,27,04,43,13.30
2014,07,27,04,44,13.30
2014,07,27,04,45,13.30
2014,07,27,04,46,13.30
2014,07,27,04,47,13.30
2014,07,27,04,48,13.30
2014,07,27,04,49,13.30
2014,07,27,04,50,13.30
2014,07,27,04,51,13.30
2014,07,27,04,52,13.20
2014,07,27,04,53,13.20
2014,07,27,04,54,13.20
2014,07,27,04,55,13.10
2014,07,27,04,56,13.10
2014,07,27,04,57,13.00
2014,07,27,04,58,13.00
2014,07,27,04,59,12.90
2014,07,27,05,00,12.80
2014,07,27,05,01,12.80
2014,07,27,05,02,12.70
2014,07,27,05,03,12.70
2014,07,27,05,04,12.70
2014,07,27,05,05,12.60
2014,07,27,05,06,12.60
2014,07,27,05,07,12.50
2014,07,27,05,08,12.50
2014,07,27,05,09,12.40
2014,07,27,05,10,12.40
2014,07,27,05,11,12.40
2014,07,27,05,12,12.40
2014,07,27,05,13,12.30
2014,07,27,05,14,12.30
2014,07,27,05,15,12.30
2014,07,27,05,16,12.30
2014,07,27,05,17,12.30
2014,07,27,05,18,12.30
2014,07,27,05,19,12.30
2014,07,27,05,20,12.30
2014,07,27,05,21,12.30
2014,07,27,05,22,12.30
2014,07,27,05,23,12.30
2014,07,27,05,24,12.30
2014,07,27,05,25,12.30
2014,07,27,05,26,12.30
2014,07,27,05,27,12.30
2014,07,27,05,28,12.30
2014,07,27,05,29,12.30
2014,07,27,05,30,12.30
2014,07,27,05,31,12.30
2014,07,27,05,32,12.30
2014,07,27,05,33,12.20
2014,07,27,05,34,12.20
2014,07,27,05,35,12.30
2014,07,27,05,36,12.30
2014,07,27,05,37,12.30
2014,07,27,05,38,12.30
2014,07,27,05,39,12.30
2014,07,27,05,40,12.30
2014,07,27,05,41,12.30
2014,07,27,05,42,12.20
2014,07,27,05,43,12.20
2014,07,27,05,44,12.20
2014,07,27,05,45,12.20
2014,07,27,05,46,12.20
2014,07,27,05,47,12.20
2014,07,27,05,48,12.20
2014,07,27,05,49,12.10
2014,07,27,05,50,12.10
2014,07,27,05,51,12.10
2014,07,27,05,52,12.10
2014,07,27,05,53,12.10
2014,07,27,05,54,12.10
2014,07,27,05,55,12.10
2014,07,27,05,56,12.10
2014,07,27,05,57,12.10
2014,07,27,05,58,12.10
2014,07,27,05,59,12.10
2014,07,27,06,00,12.10
2014,07,27,06,01,12.10
2014,07,27,06,02,12.10
2014,07,27,06,03,12.10
2014,07,27,06,04,12.10
2014,07,27,06,05,12.10
2014,07,27,06,06,12.10
2014,07,27,06,07,12.10
2014,07,27,06,08,12.10
2014,07,27,06,09,12.10
2014,07,27,06,10,12.20
2014,07,27,06,11,12.20
2014,07,27,06,12,12.20
2014,07,27,06,13,12.20
2014,07,27,06,14,12.20
2014,07,27,06,15,12.30
2014,07,27,06,16,12.30
2014,07,27,06,17,12.30
2014,07,27,06,18,12.30
2014,07,27,06,19,12.30
2014,07,27,06,20,12.40
2014,07,27,06,21,12.40
2014,07,27,06,22,12.40
2014,07,27,06,23,12.40
2014,07,27,06,24,12.40
2014,07,27,06,25,12.40
2014,07,27,06,26,12.40
2014,07,27,06,27,12.40
2014,07,27,06,28,12.40
2014,07,27,06,29,12.50
2014,07,27,06,30,12.50
2014,07,27,06,31,12.50
2014,07,27,06,32,12.50
2014,07,27,06,33,12.60
2014,07,27,06,34,12.60
2014,07,27,06,35,12.60
2014,07,27,06,36,12.60
2014,07,27,06,37,12.60
2014,07,27,06,38,12.70
2014,07,27,06,39,12.70
2014,07,27,06,40,12.80
2014,07,27,06,41,12.90
2014,07,27,06,42,12.90
2014,07,27,06,43,13.00
2014,07,27,06,44,13.00
2014,07,27,06,45,13.00
2014,07,27,06,46,13.10
2014,07,27,06,47,13.10
2014,07,27,06,48,13.10
2014,07,27,06,49,13.20
2014,07,27,06,50,13.20
2014,07,27,06,51,13.20
2014,07,27,06,52,13.20
2014,07,27,06,53,13.30
2014,07,27,06,54,13.30
2014,07,27,06,55,13.40
2014,07,27,06,56,13.40
2014,07,27,06,57,13.40
2014,07,27,06,58,13.50
2014,07,27,06,59,13.60
2014,07,27,07,00,13.80
2014,07,27,07,01,13.90
2014,07,27,07,02,14.10
2014,07,27,07,03,14.20
2014,07,27,07,04,14.30
2014,07,27,07,05,14.40
2014,07,27,07,06,14.50
2014,07,27,07,07,14.60
2014,07,27,07,08,14.70
2014,07,27,07,09,14.70
2014,07,27,07,10,14.80
2014,07,27,07,11,14.80
2014,07,27,07,12,14.80
2014,07,27,07,13,14.90
2014,07,27,07,14,14.90
2014,07,27,07,15,15.00
2014,07,27,07,16,15.10
2014,07,27,07,17,15.10
2014,07,27,07,18,15.20
2014,07,27,07,19,15.20
2014,07,27,07,20,15.20
2014,07,27,07,21,15.30
2014,07,27,07,22,15.30
2014,07,27,07,23,15.30
2014,07,27,07,24,15.30
2014,07,27,07,25,15.30
2014,07,27,07,26,15.30
2014,07,27,07,27,15.40
2014,07,27,07,28,15.40
2014,07,27,07,29,15.50
2014,07,27,07,30,15.60
2014,07,27,07,31,15.60
2014,07,27,07,32,15.60
2014,07,27,07,33,15.70
2014,07,27,07,34,15.70
2014,07,27,07,35,15.80
2014,07,27,07,36,15.80
2014,07,27,07,37,15.90
2014,07,27,07,38,15.90
2014,07,27,07,39,16.10
2014,07,27,07,40,16.20
2014,07,27,07,41,16.30
2014,07,27,07,42,16.40
2014,07,27,07,43,16.40
2014,07,27,07,44,16.40
2014,07,27,07,45,16.50
2014,07,27,07,46,16.50
2014,07,27,07,47,16.50
2014,07,27,07,48,16.50
2014,07,27,07,49,16.40
2014,07,27,07,50,16.50
2014,07,27,07,51,16.50
2014,07,27,07,52,16.60
2014,07,27,07,53,16.70
2014,07,27,07,54,16.70
2014,07,27,07,55,16.80
2014,07,27,07,56,16.80
2014,07,27,07,57,16.80
2014,07,27,07,58,16.90
2014,07,27,07,59,16.90
2014,07,27,08,00,17.10
2014,07,27,08,01,17.10
2014,07,27,08,02,17.20
2014,07,27,08,03,17.30
2014,07,27,08,04,17.30
2014,07,27,08,05,17.30
2014,07,27,08,06,17.40
2014,07,27,08,07,17.40
2014,07,27,08,08,17.40
2014,07,27,08,09,17.40
2014,07,27,08,10,17.50
2014,07,27,08,11,17.60
2014,07,27,08,12,17.60
2014,07,27,08,13,17.70
2014,07,27,08,14,17.70
2014,07,27,08,15,17.80
2014,07,27,08,16,17.90
2014,07,27,08,17,17.90
2014,07,27,08,18,18.00
2014,07,27,08,19,18.00
2014,07,27,08,20,18.10
2014,07,27,08,21,18.10
2014,07,27,08,22,18.20
2014,07,27,08,23,18.20
2014,07,27,08,24,18.30
2014,07,27,08,25,18.30
2014,07,27,08,26,18.30
2014,07,27,08,27,18.30
2014,07,27,08,28,18.30
2014,07,27,08,29,18.30
2014,07,27,08,30,18.30
2014,07,27,08,31,18.30
2014,07,27,08,32,18.30
2014,07,27,08,33,18.40
2014,07,27,08,34,18.40
2014,07,27,08,35,18.40
2014,07,27,08,36,18.50
2014,07,27,08,37,18.50
2014,07,27,08,38,18.50
2014,07,27,08,39,18.50
2014,07,27,08,40,18.50
2014,07,27,08,41,18.60
2014,07,27,08,42,18.60
2014,07,27,08,43,18.70
2014,07,27,08,44,18.70
2014,07,27,08,45,18.80
2014,07,27,08,46,18.90
2014,07,27,08,47,18.90
2014,07,27,08,48,19.00
2014,07,27,08,49,19.10
2014,07,27,08,50,19.10
2014,07,27,08,51,19.20
2014,07,27,08,52,19.20
2014,07,27,08,53,19.20
2014,07,27,08,54,19.30
2014,07,27,08,55,19.40
2014,07,27,08,56,19.50
2014,07,27,08,57,19.50
2014,07,27,08,58,19.60
2014,07,27,08,59,19.70
2014,07,27,09,00,19.70
2014,07,27,09,01,19.80
2014,07,27,09,02,19.90
2014,07,27,09,03,20.00
2014,07,27,09,04,20.10
2014,07,27,09,05,20.20
2014,07,27,09,06,20.20
2014,07,27,09,07,20.30
2014,07,27,09,08,20.30
2014,07,27,09,09,20.40
2014,07,27,09,10,20.40
2014,07,27,09,11,20.40
2014,07,27,09,12,20.50
2014,07,27,09,13,20.50
2014,07,27,09,14,20.60
2014,07,27,09,15,20.70
2014,07,27,09,16,20.80
2014,07,27,09,17,20.90
2014,07,27,09,18,21.00
2014,07,27,09,19,21.10
2014,07,27,09,20,21.20
2014,07,27,09,21,21.30
2014,07,27,09,22,21.40
2014,07,27,09,23,21.50
2014,07,27,09,24,21.60
2014,07,27,09,25,21.60
2014,07,27,09,26,21.60
2014,07,27,09,27,21.50
2014,07,27,09,28,21.30
2014,07,27,09,29,21.20
2014,07,27,09,30,21.10
2014,07,27,09,31,21.00
2014,07,27,09,32,21.00
2014,07,27,09,33,21.00
2014,07,27,09,34,21.10
2014,07,27,09,35,21.10
2014,07,27,09,36,21.10
2014,07,27,09,37,21.20
2014,07,27,09,38,21.30
2014,07,27,09,39,21.30
2014,07,27,09,40,21.30
2014,07,27,09,41,21.40
2014,07,27,09,42,21.50
2014,07,27,09,43,21.50
2014,07,27,09,44,21.50
2014,07,27,09,45,21.50
2014,07,27,09,46,21.50
2014,07,27,09,47,21.50
2014,07,27,09,48,21.60
2014,07,27,09,49,21.60
2014,07,27,09,50,21.70
2014,07,27,09,51,21.60
2014,07,27,09,52,21.50
2014,07,27,09,53,21.40
2014,07,27,09,54,21.40
2014,07,27,09,55,21.40
2014,07,27,09,56,21.40
2014,07,27,09,57,21.50
2014,07,27,09,58,21.50
2014,07,27,09,59,21.60
2014,07,27,10,00,21.60
2014,07,27,10,01,21.70
2014,07,27,10,02,21.70
2014,07,27,10,03,21.70
2014,07,27,10,04,21.70
2014,07,27,10,05,21.70
2014,07,27,10,06,21.80
2014,07,27,10,07,21.70
2014,07,27,10,08,21.60
2014,07,27,10,09,21.60
2014,07,27,10,10,21.60
2014,07,27,10,11,21.60
2014,07,27,10,12,21.70
2014,07,27,10,13,21.80
2014,07,27,10,14,21.90
2014,07,27,10,15,21.90
2014,07,27,10,16,22.00
2014,07,27,10,17,22.10
2014,07,27,10,18,22.00
2014,07,27,10,19,22.00
2014,07,27,10,20,21.90
2014,07,27,10,21,21.90
2014,07,27,10,22,22.00
2014,07,27,10,23,22.20
2014,07,27,10,24,22.30
2014,07,27,10,25,22.40
2014,07,27,10,26,22.40
2014,07,27,10,27,22.40
2014,07,27,10,28,22.50
2014,07,27,10,29,22.50
2014,07,27,10,30,22.60
2014,07,27,10,31,22.50
2014,07,27,10,32,22.40
2014,07,27,10,33,22.40
2014,07,27,10,34,22.40
2014,07,27,10,35,22.40
2014,07,27,10,36,22.40
2014,07,27,10,37,22.40
2014,07,27,10,38,22.40
2014,07,27,10,39,22.50
2014,07,27,10,40,22.70
2014,07,27,10,41,22.70
2014,07,27,10,42,22.70
2014,07,27,10,43,22.80
2014,07,27,10,44,23.00
2014,07,27,10,45,23.00
2014,07,27,10,46,22.90
2014,07,27,10,47,22.80
2014,07,27,10,48,22.80
2014,07,27,10,49,22.90
2014,07,27,10,50,23.10
2014,07,27,10,51,23.20
2014,07,27,10,52,23.20
2014,07,27,10,53,23.30
2014,07,27,10,54,23.30
2014,07,27,10,55,23.30
2014,07,27,10,56,23.30
2014,07,27,10,57,23.20
2014,07,27,10,58,23.20
2014,07,27,10,59,23.10
2014,07,27,11,00,23.10
2014,07,27,11,01,23.00
2014,07,27,11,02,23.00
2014,07,27,11,03,23.00
2014,07,27,11,04,23.00
2014,07,27,11,05,23.10
2014,07,27,11,06,23.10
2014,07,27,11,07,23.20
2014,07,27,11,08,23.30
2014,07,27,11,09,23.30
2014,07,27,11,10,23.40
2014,07,27,11,11,23.40
2014,07,27,11,12,23.30
2014,07,27,11,13,23.20
2014,07,27,11,14,23.20
2014,07,27,11,15,23.20
2014,07,27,11,16,23.20
2014,07,27,11,17,23.10
2014,07,27,11,18,23.20
2014,07,27,11,19,23.20
2014,07,27,11,20,23.30
2014,07,27,11,21,23.40
2014,07,27,11,22,23.50
2014,07,27,11,23,23.60
2014,07,27,11,24,23.70
2014,07,27,11,25,23.70
2014,07,27,11,26,23.80
2014,07,27,11,27,23.90
2014,07,27,11,28,24.00
2014,07,27,11,29,24.00
2014,07,27,11,30,24.00
2014,07,27,11,31,23.90
2014,07,27,11,32,23.80
2014,07,27,11,33,23.70
2014,07,27,11,34,23.70
2014,07,27,11,35,23.70
2014,07,27,11,36,23.80
2014,07,27,11,37,23.70
2014,07,27,11,38,23.70
2014,07,27,11,39,23.70
2014,07,27,11,40,23.70
2014,07,27,11,41,23.80
2014,07,27,11,42,23.80
2014,07,27,11,43,23.80
2014,07,27,11,44,23.80
2014,07,27,11,45,23.90
2014,07,27,11,46,24.00
2014,07,27,11,47,24.10
2014,07,27,11,48,24.10
2014,07,27,11,49,24.10
2014,07,27,11,50,24.20
2014,07,27,11,51,24.20
2014,07,27,11,52,24.20
2014,07,27,11,53,24.30
2014,07,27,11,54,24.30
2014,07,27,11,55,24.40
2014,07,27,11,56,24.50
2014,07,27,11,57,24.60
2014,07,27,11,58,24.70
2014,07,27,11,59,24.70
2014,07,27,12,00,24.60
2014,07,27,12,01,24.60
2014,07,27,12,02,24.60
2014,07,27,12,03,24.60
2014,07,27,12,04,24.60
2014,07,27,12,05,24.70
2014,07,27,12,06,24.70
2014,07,27,12,07,24.60
2014,07,27,12,08,24.70
2014,07,27,12,09,24.70
2014,07,27,12,10,24.70
2014,07,27,12,11,24.60
2014,07,27,12,12,24.40
2014,07,27,12,13,24.50
2014,07,27,12,14,24.60
2014,07,27,12,15,24.70
2014,07,27,12,16,24.70
2014,07,27,12,17,24.70
2014,07,27,12,18,24.70
2014,07,27,12,19,24.70
2014,07,27,12,20,24.70
2014,07,27,12,21,24.70
2014,07,27,12,22,24.70
2014,07,27,12,23,24.70
2014,07,27,12,24,24.70
2014,07,27,12,25,24.60
2014,07,27,12,26,24.80
2014,07,27,12,27,24.80
2014,07,27,12,28,24.90
2014,07,27,12,29,24.80
2014,07,27,12,30,24.90
2014,07,27,12,31,25.10
2014,07,27,12,32,25.00
2014,07,27,12,33,24.80
2014,07,27,12,34,24.60
2014,07,27,12,35,24.70
2014,07,27,12,36,24.70
2014,07,27,12,37,24.70
2014,07,27,12,38,24.70
2014,07,27,12,39,24.60
2014,07,27,12,40,24.50
2014,07,27,12,41,24.40
2014,07,27,12,42,24.40
2014,07,27,12,43,24.50
2014,07,27,12,44,24.60
2014,07,27,12,45,24.80
2014,07,27,12,46,24.90
2014,07,27,12,47,24.90
2014,07,27,12,48,24.80
2014,07,27,12,49,24.90
2014,07,27,12,50,24.90
2014,07,27,12,51,25.00
2014,07,27,12,52,25.20
2014,07,27,12,53,25.20
2014,07,27,12,54,25.20
2014,07,27,12,55,25.30
2014,07,27,12,56,25.30
2014,07,27,12,57,25.40
2014,07,27,12,58,25.50
2014,07,27,12,59,25.50
2014,07,27,13,00,25.50
2014,07,27,13,01,25.60
2014,07,27,13,02,25.80
2014,07,27,13,03,25.90
2014,07,27,13,04,25.90
2014,07,27,13,05,26.00
2014,07,27,13,06,26.10
2014,07,27,13,07,26.20
2014,07,27,13,08,26.30
2014,07,27,13,09,26.30
2014,07,27,13,10,26.40
2014,07,27,13,11,26.40
2014,07,27,13,12,26.40
2014,07,27,13,13,26.40
2014,07,27,13,14,26.30
2014,07,27,13,15,26.20
2014,07,27,13,16,26.20
2014,07,27,13,17,26.10
2014,07,27,13,18,26.10
2014,07,27,13,19,26.00
2014,07,27,13,20,25.80
2014,07,27,13,21,25.80
2014,07,27,13,22,25.80
2014,07,27,13,23,25.80
2014,07,27,13,24,25.80
2014,07,27,13,25,25.80
2014,07,27,13,26,25.90
2014,07,27,13,27,25.90
2014,07,27,13,28,25.90
2014,07,27,13,29,25.90
2014,07,27,13,30,25.90
2014,07,27,13,31,26.00
2014,07,27,13,32,26.00
2014,07,27,13,33,26.10
2014,07,27,13,34,26.20
2014,07,27,13,35,26.30
2014,07,27,13,36,26.40
2014,07,27,13,37,26.40
2014,07,27,13,38,26.60
2014,07,27,13,39,26.70
2014,07,27,13,40,26.60
2014,07,27,13,41,26.50
2014,07,27,13,42,26.60
2014,07,27,13,43,26.60
2014,07,27,13,44,26.70
2014,07,27,13,45,26.70
2014,07,27,13,46,26.60
2014,07,27,13,47,26.60
2014,07,27,13,48,26.60
2014,07,27,13,49,26.60
2014,07,27,13,50,26.60
2014,07,27,13,51,26.50
2014,07,27,13,52,26.50
2014,07,27,13,53,26.50
2014,07,27,13,54,26.50
2014,07,27,13,55,26.60
2014,07,27,13,56,26.80
2014,07,27,13,57,27.10
2014,07,27,13,58,27.20
2014,07,27,13,59,27.30
2014,07,27,14,00,27.20
2014,07,27,14,01,27.10
2014,07,27,14,02,26.90
2014,07,27,14,03,26.80
2014,07,27,14,04,26.70
2014,07,27,14,05,26.60
2014,07,27,14,06,26.70
2014,07,27,14,07,26.60
2014,07,27,14,08,26.60
2014,07,27,14,09,26.70
2014,07,27,14,10,26.70
2014,07,27,14,11,26.70
2014,07,27,14,12,26.80
2014,07,27,14,13,26.90
2014,07,27,14,14,26.90
2014,07,27,14,15,26.80
2014,07,27,14,16,26.90
2014,07,27,14,17,26.90
2014,07,27,14,18,27.00
2014,07,27,14,19,27.00
2014,07,27,14,20,26.80
2014,07,27,14,21,26.60
2014,07,27,14,22,26.50
2014,07,27,14,23,26.60
2014,07,27,14,24,26.70
2014,07,27,14,25,26.80
2014,07,27,14,26,27.00
2014,07,27,14,27,27.10
2014,07,27,14,28,27.10
2014,07,27,14,29,27.10
2014,07,27,14,30,27.00
2014,07,27,14,31,27.10
2014,07,27,14,32,26.90
2014,07,27,14,33,26.90
2014,07,27,14,34,26.90
2014,07,27,14,35,27.00
2014,07,27,14,36,27.10
2014,07,27,14,37,27.10
2014,07,27,14,38,27.00
2014,07,27,14,39,27.00
2014,07,27,14,40,27.00
2014,07,27,14,41,27.00
2014,07,27,14,42,27.00
2014,07,27,14,43,27.00
2014,07,27,14,44,26.90
2014,07,27,14,45,26.70
2014,07,27,14,46,26.70
2014,07,27,14,47,26.60
2014,07,27,14,48,26.60
2014,07,27,14,49,26.60
2014,07,27,14,50,26.60
2014,07,27,14,51,26.70
2014,07,27,14,52,26.70
2014,07,27,14,53,26.80
2014,07,27,14,54,26.80
2014,07,27,14,55,27.00
2014,07,27,14,56,27.10
2014,07,27,14,57,27.10
2014,07,27,14,58,27.10
2014,07,27,14,59,27.00
2014,07,27,15,00,27.00
2014,07,27,15,01,27.00
2014,07,27,15,02,27.00
2014,07,27,15,03,27.10
2014,07,27,15,04,27.10
2014,07,27,15,05,27.10
2014,07,27,15,06,27.10
2014,07,27,15,07,27.10
2014,07,27,15,08,27.20
2014,07,27,15,09,27.30
2014,07,27,15,10,27.30
2014,07,27,15,11,27.30
2014,07,27,15,12,27.30
2014,07,27,15,13,27.50
2014,07,27,15,14,27.60
2014,07,27,15,15,27.60
2014,07,27,15,16,27.50
2014,07,27,15,17,27.30
2014,07,27,15,18,27.40
2014,07,27,15,19,27.40
2014,07,27,15,20,27.50
2014,07,27,15,21,27.50
2014,07,27,15,22,27.30
2014,07,27,15,23,27.20
2014,07,27,15,24,27.00
2014,07,27,15,25,26.90
2014,07,27,15,26,26.90
2014,07,27,15,27,27.00
2014,07,27,15,28,27.20
2014,07,27,15,29,27.40
2014,07,27,15,30,27.50
2014,07,27,15,31,27.60
2014,07,27,15,32,27.60
2014,07,27,15,33,27.60
2014,07,27,15,34,27.60
2014,07,27,15,35,27.60
2014,07,27,15,36,27.60
2014,07,27,15,37,27.50
2014,07,27,15,38,27.40
2014,07,27,15,39,27.30
2014,07,27,15,40,27.30
2014,07,27,15,41,27.30
2014,07,27,15,42,27.40
2014,07,27,15,43,27.50
2014,07,27,15,44,27.60
2014,07,27,15,45,27.60
2014,07,27,15,46,27.60
2014,07,27,15,47,27.60
2014,07,27,15,48,27.60
2014,07,27,15,49,27.60
2014,07,27,15,50,27.60
2014,07,27,15,51,27.60
2014,07,27,15,52,27.70
2014,07,27,15,53,27.70
2014,07,27,15,54,27.80
2014,07,27,15,55,27.80
2014,07,27,15,56,27.80
2014,07,27,15,57,27.80
2014,07,27,15,58,27.80
2014,07,27,15,59,27.80
2014,07,27,16,00,27.70
2014,07,27,16,01,27.60
2014,07,27,16,02,27.60
2014,07,27,16,03,27.70
2014,07,27,16,04,27.80
2014,07,27,16,05,27.90
2014,07,27,16,06,27.90
2014,07,27,16,07,27.90
2014,07,27,16,08,27.90
2014,07,27,16,09,27.80
2014,07,27,16,10,27.70
2014,07,27,16,11,27.70
2014,07,27,16,12,27.70
2014,07,27,16,13,27.80
2014,07,27,16,14,27.90
2014,07,27,16,15,27.80
2014,07,27,16,16,27.70
2014,07,27,16,17,27.70
2014,07,27,16,18,27.60
2014,07,27,16,19,27.70
2014,07,27,16,20,27.80
2014,07,27,16,21,27.80
2014,07,27,16,22,27.90
2014,07,27,16,23,27.90
2014,07,27,16,24,27.80
2014,07,27,16,25,27.80
2014,07,27,16,26,27.70
2014,07,27,16,27,27.60
2014,07,27,16,28,27.50
2014,07,27,16,29,27.40
2014,07,27,16,30,27.50
2014,07,27,16,31,27.60
2014,07,27,16,32,27.70
2014,07,27,16,33,27.90
2014,07,27,16,34,27.90
2014,07,27,16,35,27.90
2014,07,27,16,36,27.90
2014,07,27,16,37,27.90
2014,07,27,16,38,27.80
2014,07,27,16,39,27.90
2014,07,27,16,40,28.00
2014,07,27,16,41,28.00
2014,07,27,16,42,28.10
2014,07,27,16,43,28.10
2014,07,27,16,44,28.10
2014,07,27,16,45,28.10
2014,07,27,16,46,28.10
2014,07,27,16,47,28.20
2014,07,27,16,48,28.20
2014,07,27,16,49,28.30
2014,07,27,16,50,28.30
2014,07,27,16,51,28.30
2014,07,27,16,52,28.30
2014,07,27,16,53,28.40
2014,07,27,16,54,28.40
2014,07,27,16,55,28.40
2014,07,27,16,56,28.30
2014,07,27,16,57,28.30
2014,07,27,16,58,28.30
2014,07,27,16,59,28.30
2014,07,27,17,00,28.20
2014,07,27,17,01,28.20
2014,07,27,17,02,28.20
2014,07,27,17,03,28.20
2014,07,27,17,04,28.20
2014,07,27,17,05,28.10
2014,07,27,17,06,28.00
2014,07,27,17,07,28.00
2014,07,27,17,08,28.10
2014,07,27,17,09,28.10
2014,07,27,17,10,28.10
2014,07,27,17,11,28.10
2014,07,27,17,12,27.90
2014,07,27,17,13,27.70
2014,07,27,17,14,27.70
2014,07,27,17,15,27.80
2014,07,27,17,16,27.80
2014,07,27,17,17,27.90
2014,07,27,17,18,27.90
2014,07,27,17,19,27.90